Powrót do katalogu

STARLINK-37051

AktywnyŁącznośćVLEO
NORAD 68080·PAYLOAD·🇺🇸 United States

Wystrzelony Mar 4, 2026 z Vandenberg Space Force Base

Loading…

Następne Przeloty (najbliższe 24 godziny)

TLE

ŚwieżeSource: CelesTrak SupGP

Epoka: Sep 14, 2026, 14:43 UTC

1 68080C 26042M   26257.61368056 -.00042431  00000+0 -12541-2 0  2570
2 68080  53.1591  15.3125 0001228  74.3699 249.7353 15.34400551    18

Śledź STARLINK-37051 w czasie rzeczywistym z AllMySat

Download on the App Store